Location: Unspecified
(38.9820°N, 94.4650°W)
Time: 02:03:40
(UTC-05:00)

Resurs 1-4 Rocket - Visible Passes

Search period start: 30 April 2017 00:00
Search period end: 10 May 2017 00:00
Orbit: 799 x 815 km, 98.5° (Epoch: 28 April)

Date Brightness Start Highest point End Pass type
(mag) Time Alt. Az. Time Alt. Az. Time Alt. Az.
30 Apr 2.0 03:45:32 10° NNE 03:50:50 88° ESE 03:51:36 67° S visible
30 Apr 4.1 05:28:06 10° NW 05:29:53 12° WNW 05:31:40 10° W visible
01 May 2.6 03:21:06 10° NNE 03:26:14 52° E 03:26:49 49° ESE visible
01 May 3.6 05:01:59 10° NNW 05:05:40 20° WNW 05:07:54 15° W visible
02 May 3.4 02:56:57 10° NE 03:01:35 30° E 03:02:02 30° ESE visible
02 May 3.0 04:36:44 10° N 04:41:20 32° WNW 04:43:07 25° WSW visible
03 May 4.1 02:33:17 10° NE 02:36:49 18° E 02:37:15 18° E visible
03 May 2.3 04:11:49 10° N 04:16:56 53° WNW 04:18:21 41° WSW visible
04 May 2.0 03:47:08 10° NNE 03:52:26 89° W 03:53:34 57° SSW visible
04 May 4.1 05:29:56 10° NW 05:31:27 11° WNW 05:32:59 10° WNW visible
05 May 2.5 03:22:41 10° NNE 03:27:51 54° E 03:28:47 48° SE visible
05 May 3.7 05:03:39 10° NNW 05:07:15 19° WNW 05:09:51 13° W visible
06 May 3.3 02:58:30 10° NE 03:03:12 32° E 03:04:00 30° ESE visible
06 May 3.1 04:38:22 10° N 04:42:56 30° WNW 04:45:05 23° WSW visible
07 May 4.1 02:34:47 10° NE 02:38:26 19° E 02:39:13 18° ESE visible
07 May 2.4 04:13:26 10° N 04:18:32 51° WNW 04:20:17 36° WSW visible
08 May 4.6 02:12:54 10° E 02:13:36 10° E 02:14:17 10° E visible
08 May 2.0 03:48:44 10° NNE 03:54:02 86° WNW 03:55:30 50° SSW visible
08 May 4.2 05:31:49 10° NW 05:33:02 11° WNW 05:34:15 10° WNW visible
09 May 2.5 03:24:16 10° NNE 03:29:28 56° E 03:30:43 45° SSE visible
09 May 3.7 05:05:20 10° NNW 05:08:49 18° WNW 05:11:48 12° W visible
